| time (UTC) | temp C | wind direction | speed KPH | gust KPH | rain 1hr cm | rain 24hr cm | rain mn cm | humidity % | barometer mb |
| 20260506174006 | 18 | 70 | 11.3 | 17.7 | 0.00 | 0.51 | 0.51 | 81 | 1008.4 |
| 20260506173506 | 18 | 72 | 11.3 | 17.7 | 0.00 | 0.51 | 0.51 | 83 | 1008.5 |
| 20260506173006 | 18 | 66 | 9.7 | 17.7 | 0.00 | 0.51 | 0.51 | 83 | 1008.5 |
| 20260506172505 | 18 | 61 | 11.3 | 16.1 | 0.00 | 0.51 | 0.51 | 85 | 1008.5 |
| 20260506171506 | 18 | 66 | 11.3 | 16.1 | 0.00 | 0.51 | 0.51 | 86 | 1008.3 |
| 20260506171006 | 18 | 72 | 14.5 | 20.9 | 0.00 | 0.51 | 0.51 | 86 | 1008.3 |
| 20260506170506 | 18 | 72 | 16.1 | 20.9 | 0.00 | 0.51 | 0.51 | 86 | 1008.2 |
| 20260506170005 | 18 | 72 | 16.1 | 22.5 | 0.00 | 0.51 | 0.51 | 87 | 1008.1 |
| 20260506165005 | 18 | 55 | 16.1 | 24.1 | 0.00 | 0.51 | 0.51 | 86 | 1008.2 |
| 20260506164506 | 18 | 51 | 11.3 | 20.9 | 0.00 | 0.51 | 0.51 | 84 | 1008.2 |
| 20260506163506 | 18 | 339 | 6.4 | 16.1 | 0.03 | 0.51 | 0.51 | 80 | 1008.3 |
| 20260506163006 | 18 | 344 | 4.8 | 11.3 | 0.03 | 0.51 | 0.51 | 82 | 1008.3 |
| 20260506162505 | 18 | 56 | 9.7 | 24.1 | 0.03 | 0.51 | 0.51 | 83 | 1008.3 |
| 20260506162005 | 18 | 80 | 12.9 | 24.1 | 0.03 | 0.51 | 0.51 | 84 | 1008.2 |
| 20260506161506 | 18 | 76 | 11.3 | 22.5 | 0.03 | 0.51 | 0.51 | 80 | 1008.3 |
| 20260506161006 | 18 | 54 | 9.7 | 14.5 | 0.03 | 0.51 | 0.51 | 80 | 1008.0 |
| 20260506160505 | 17 | 42 | 11.3 | 16.1 | 0.03 | 0.51 | 0.51 | 81 | 1007.9 |
| 20260506160005 | 17 | 39 | 12.9 | 20.9 | 0.03 | 0.51 | 0.51 | 81 | 1008.1 |
| 20260506155506 | 17 | 34 | 12.9 | 20.9 | 0.03 | 0.51 | 0.51 | 81 | 1008.1 |
| 20260506154005 | 18 | 5 | 8.0 | 22.5 | 0.00 | 0.48 | 0.48 | 80 | 1008.5 |
| 20260506153506 | 20 | 58 | 11.3 | 22.5 | 0.00 | 0.48 | 0.48 | 82 | 1008.2 |
| 20260506152506 | 20 | 71 | 20.9 | 32.2 | 0.00 | 0.48 | 0.48 | 84 | 1007.5 |
| 20260506152006 | 20 | 66 | 17.7 | 25.7 | 0.00 | 0.48 | 0.48 | 83 | 1007.5 |
| 20260506150005 | 21 | 91 | 12.9 | 17.7 | 0.00 | 0.48 | 0.48 | 78 | 1007.7 |
| 20260506145505 | 21 | 101 | 8.0 | 17.7 | 0.00 | 0.48 | 0.48 | 71 | 1007.8 |
| 20260506145006 | 21 | 110 | 3.2 | 12.9 | 0.00 | 0.48 | 0.48 | 75 | 1007.8 |
| 20260506144505 | 21 | 107 | 6.4 | 17.7 | 0.00 | 0.48 | 0.48 | 73 | 1007.9 |
| 20260506144006 | 21 | 107 | 8.0 | 17.7 | 0.00 | 0.48 | 0.48 | 75 | 1008.1 |
| 20260506143505 | 21 | 114 | 6.4 | 12.9 | 0.00 | 0.48 | 0.48 | 74 | 1008.2 |
| 20260506142505 | 21 | 105 | 12.9 | 24.1 | 0.00 | 0.48 | 0.48 | 78 | 1008.1 |
| 20260506142005 | 20 | 91 | 14.5 | 24.1 | 0.00 | 0.48 | 0.48 | 81 | 1008.2 |
| 20260506141506 | 20 | 90 | 14.5 | 20.9 | 0.00 | 0.48 | 0.48 | 83 | 1008.2 |
| 20260506140505 | 21 | 89 | 12.9 | 20.9 | 0.00 | 0.48 | 0.48 | 85 | 1008.4 |
| 20260506140005 | 20 | 90 | 14.5 | 20.9 | 0.00 | 0.48 | 0.48 | 83 | 1008.6 |
| 20260506135506 | 20 | 99 | 12.9 | 19.3 | 0.00 | 0.48 | 0.48 | 83 | 1008.5 |
| 20260506135006 | 20 | 100 | 14.5 | 22.5 | 0.00 | 0.48 | 0.48 | 85 | 1008.7 |
| 20260506134506 | 20 | 95 | 16.1 | 22.5 | 0.00 | 0.48 | 0.48 | 85 | 1008.7 |
| 20260506134005 | 20 | 92 | 16.1 | 22.5 | 0.00 | 0.48 | 0.48 | 85 | 1008.7 |
| 20260506133505 | 20 | 99 | 16.1 | 22.5 | 0.00 | 0.48 | 0.48 | 85 | 1008.8 |
| 20260506133005 | 20 | 100 | 16.1 | 24.1 | 0.00 | 0.48 | 0.48 | 86 | 1008.8 |
| 20260506132505 | 20 | 100 | 17.7 | 24.1 | 0.00 | 0.48 | 0.48 | 87 | 1008.9 |
| 20260506132005 | 20 | 105 | 17.7 | 27.4 | 0.00 | 0.48 | 0.48 | 87 | 1008.9 |
| 20260506131505 | 20 | 103 | 16.1 | 27.4 | 0.00 | 0.48 | 0.48 | 87 | 1009.0 |
| 20260506131005 | 20 | 105 | 16.1 | 24.1 | 0.00 | 0.48 | 0.48 | 86 | 1008.9 |
| 20260506130005 | 20 | 104 | 16.1 | 22.5 | 0.00 | 0.48 | 0.48 | 85 | 1008.9 |
| 20260506125506 | 20 | 103 | 14.5 | 22.5 | 0.00 | 0.48 | 0.48 | 85 | 1009.0 |
| 20260506125005 | 20 | 101 | 16.1 | 27.4 | 0.00 | 0.48 | 0.48 | 88 | 1009.1 |
| 20260506124005 | 19 | 99 | 17.7 | 24.1 | 0.00 | 0.48 | 0.48 | 88 | 1009.0 |
| 20260506123505 | 19 | 92 | 19.3 | 27.4 | 0.00 | 0.48 | 0.48 | 89 | 1008.9 |
| 20260506123005 | 18 | 96 | 22.5 | 32.2 | 0.05 | 0.48 | 0.48 | 90 | 1009.0 |
| 20260506122505 | 18 | 101 | 24.1 | 32.2 | 0.15 | 0.48 | 0.48 | 91 | 1009.0 |
| 20260506122005 | 18 | 99 | 25.7 | 33.8 | 0.18 | 0.48 | 0.48 | 92 | 1009.0 |
| 20260506121505 | 18 | 98 | 25.7 | 33.8 | 0.23 | 0.48 | 0.48 | 91 | 1008.9 |
| 20260506121005 | 18 | 98 | 25.7 | 32.2 | 0.25 | 0.48 | 0.48 | 93 | 1008.9 |
| 20260506120505 | 18 | 101 | 24.1 | 32.2 | 0.25 | 0.48 | 0.48 | 93 | 1008.9 |
| 20260506120005 | 17 | 101 | 24.1 | 30.6 | 0.25 | 0.48 | 0.48 | 93 | 1008.9 |
| 20260506115506 | 17 | 94 | 25.7 | 33.8 | 0.25 | 0.48 | 0.48 | 93 | 1008.8 |
| 20260506115006 | 17 | 90 | 29.0 | 40.2 | 0.25 | 0.48 | 0.48 | 93 | 1008.9 |
| 20260506114505 | 17 | 90 | 33.8 | 46.7 | 0.25 | 0.48 | 0.48 | 93 | 1008.7 |
| 20260506114005 | 17 | 88 | 35.4 | 46.7 | 0.25 | 0.48 | 0.48 | 93 | 1008.7 |
| 20260506113005 | 17 | 104 | 22.5 | 40.2 | 0.18 | 0.41 | 0.41 | 92 | 1009.1 |
| 20260506112006 | 17 | 87 | 17.7 | 25.7 | 0.08 | 0.30 | 0.30 | 91 | 1009.7 |
| 20260506111006 | 17 | 80 | 9.7 | 16.1 | 0.00 | 0.23 | 0.23 | 91 | 1010.0 |
| 20260506110005 | 17 | 87 | 14.5 | 20.9 | 0.00 | 0.23 | 0.23 | 91 | 1010.0 |
| 20260506105505 | 17 | 89 | 17.7 | 24.1 | 0.00 | 0.23 | 0.23 | 91 | 1010.0 |
| 20260506105005 | 17 | 88 | 19.3 | 25.7 | 0.00 | 0.23 | 0.23 | 90 | 1010.0 |
| 20260506104505 | 17 | 91 | 20.9 | 29.0 | 0.00 | 0.23 | 0.23 | 90 | 1009.9 |
| 20260506104005 | 17 | 90 | 20.9 | 29.0 | 0.00 | 0.23 | 0.23 | 90 | 1009.8 |
| 20260506103505 | 17 | 90 | 19.3 | 25.7 | 0.00 | 0.23 | 0.23 | 89 | 1009.8 |
| 20260506103006 | 17 | 93 | 20.9 | 25.7 | 0.00 | 0.23 | 0.23 | 89 | 1009.8 |
| 20260506102505 | 17 | 96 | 20.9 | 27.4 | 0.00 | 0.23 | 0.23 | 88 | 1010.0 |
| 20260506102005 | 17 | 102 | 20.9 | 29.0 | 0.00 | 0.23 | 0.23 | 88 | 1010.1 |
| 20260506101505 | 17 | 102 | 20.9 | 29.0 | 0.00 | 0.23 | 0.23 | 88 | 1010.2 |
| 20260506100505 | 17 | 99 | 20.9 | 27.4 | 0.00 | 0.23 | 0.23 | 88 | 1010.1 |
| 20260506100005 | 17 | 93 | 20.9 | 27.4 | 0.00 | 0.23 | 0.23 | 88 | 1010.0 |
| 20260506095505 | 17 | 91 | 20.9 | 27.4 | 0.00 | 0.23 | 0.23 | 89 | 1010.0 |
| 20260506095005 | 17 | 97 | 19.3 | 27.4 | 0.00 | 0.23 | 0.23 | 89 | 1010.1 |
| 20260506094505 | 17 | 95 | 20.9 | 27.4 | 0.00 | 0.23 | 0.23 | 89 | 1010.1 |
| 20260506094005 | 17 | 90 | 20.9 | 27.4 | 0.00 | 0.23 | 0.23 | 90 | 1010.0 |
| 20260506093506 | 17 | 94 | 20.9 | 30.6 | 0.00 | 0.23 | 0.23 | 90 | 1010.1 |
| 20260506093005 | 17 | 98 | 20.9 | 30.6 | 0.00 | 0.23 | 0.23 | 90 | 1010.1 |
| 20260506092005 | 17 | 87 | 20.9 | 25.7 | 0.00 | 0.23 | 0.23 | 90 | 1010.0 |
| 20260506091506 | 16 | 83 | 20.9 | 25.7 | 0.00 | 0.23 | 0.23 | 90 | 1010.0 |
| 20260506091006 | 17 | 81 | 20.9 | 27.4 | 0.00 | 0.23 | 0.23 | 90 | 1010.0 |
| 20260506090505 | 17 | 81 | 19.3 | 27.4 | 0.00 | 0.23 | 0.23 | 90 | 1009.9 |
| 20260506090005 | 17 | 83 | 17.7 | 24.1 | 0.00 | 0.23 | 0.23 | 91 | 1009.9 |
| 20260506085006 | 16 | 87 | 17.7 | 27.4 | 0.00 | 0.28 | 0.23 | 91 | 1010.0 |
| 20260506084506 | 16 | 84 | 17.7 | 22.5 | 0.00 | 0.30 | 0.23 | 91 | 1010.0 |
| 20260506084006 | 16 | 83 | 17.7 | 22.5 | 0.00 | 0.33 | 0.23 | 91 | 1010.0 |
| 20260506083006 | 16 | 81 | 17.7 | 22.5 | 0.00 | 0.38 | 0.23 | 92 | 1009.9 |
| 20260506082505 | 16 | 88 | 16.1 | 22.5 | 0.00 | 0.41 | 0.23 | 92 | 1009.7 |
| 20260506082005 | 16 | 92 | 14.5 | 20.9 | 0.00 | 0.43 | 0.23 | 92 | 1009.9 |
| 20260506081005 | 16 | 90 | 17.7 | 20.9 | 0.00 | 0.46 | 0.23 | 92 | 1010.1 |
| 20260506073505 | 16 | 98 | 19.3 | 24.1 | 0.00 | 0.69 | 0.23 | 92 | 1009.8 |
| 20260506073006 | 16 | 99 | 19.3 | 25.7 | 0.00 | 0.71 | 0.23 | 93 | 1009.8 |
| 20260506072505 | 16 | 95 | 19.3 | 25.7 | 0.00 | 0.74 | 0.23 | 93 | 1009.8 |
| 20260506071506 | 16 | 85 | 17.7 | 25.7 | 0.00 | 0.79 | 0.23 | 94 | 1009.8 |
| 20260506071006 | 16 | 81 | 16.1 | 25.7 | 0.00 | 0.79 | 0.23 | 94 | 1009.8 |
| 20260506062505 | 15 | 92 | 14.5 | 19.3 | 0.00 | 0.84 | 0.23 | 95 | 1010.1 |
| 20260506062005 | 15 | 91 | 14.5 | 19.3 | 0.00 | 0.84 | 0.23 | 95 | 1010.1 |
| 20260506061505 | 15 | 90 | 12.9 | 17.7 | 0.03 | 0.84 | 0.23 | 95 | 1010.1 |
| 20260506060505 | 15 | 90 | 11.3 | 14.5 | 0.03 | 0.84 | 0.23 | 95 | 1010.3 |
| 20260506050505 | 14 | 97 | 14.5 | 20.9 | 0.08 | 0.81 | 0.20 | 95 | 1010.6 |
| 20260506045006 | 14 | 92 | 11.3 | 16.1 | 0.08 | 0.79 | 0.18 | 95 | 1010.8 |
| 20260506043505 | 14 | 94 | 8.0 | 14.5 | 0.08 | 0.79 | 0.15 | 95 | 1010.7 |
| 20260506043006 | 14 | 92 | 8.0 | 14.5 | 0.10 | 0.79 | 0.15 | 95 | 1010.7 |
| 20260506042506 | 14 | 86 | 8.0 | 12.9 | 0.08 | 0.76 | 0.15 | 95 | 1010.6 |
| 20260506042005 | 14 | 88 | 11.3 | 14.5 | 0.08 | 0.76 | 0.15 | 95 | 1010.4 |
| 20260506041505 | 14 | 94 | 12.9 | 17.7 | 0.08 | 0.76 | 0.15 | 95 | 1010.4 |
| 20260506041005 | 14 | 97 | 14.5 | 19.3 | 0.08 | 0.74 | 0.13 | 95 | 1010.3 |
| 20260506040506 | 14 | 98 | 14.5 | 19.3 | 0.08 | 0.74 | 0.13 | 95 | 1010.3 |
| 20260506040005 | 14 | 100 | 12.9 | 17.7 | 0.08 | 0.74 | 0.13 | 95 | 1010.3 |
| 20260506035505 | 14 | 105 | 9.7 | 17.7 | 0.08 | 0.74 | 0.13 | 95 | 1010.2 |
| 20260506035005 | 13 | 113 | 8.0 | 14.5 | 0.05 | 0.71 | 0.10 | 95 | 1010.3 |
| 20260506034505 | 13 | 122 | 6.4 | 14.5 | 0.05 | 0.71 | 0.10 | 95 | 1010.5 |
| 20260506034005 | 13 | 115 | 8.0 | 12.9 | 0.05 | 0.71 | 0.08 | 95 | 1010.5 |
| 20260506033505 | 13 | 105 | 9.7 | 14.5 | 0.05 | 0.71 | 0.08 | 95 | 1010.4 |
| 20260506033006 | 13 | 101 | 11.3 | 17.7 | 0.05 | 0.69 | 0.05 | 95 | 1010.3 |
| 20260506032505 | 13 | 95 | 14.5 | 17.7 | 0.05 | 0.69 | 0.05 | 95 | 1010.3 |
| 20260506032005 | 13 | 91 | 12.9 | 17.7 | 0.05 | 0.69 | 0.05 | 95 | 1010.2 |
| 20260506031505 | 13 | 90 | 9.7 | 17.7 | 0.05 | 0.69 | 0.05 | 95 | 1010.3 |
| 20260506031005 | 13 | 84 | 6.4 | 16.1 | 0.03 | 0.66 | 0.05 | 95 | 1010.3 |
| 20260506030506 | 13 | 81 | 9.7 | 16.1 | 0.03 | 0.66 | 0.05 | 95 | 1010.5 |
| 20260506030005 | 13 | 77 | 12.9 | 16.1 | 0.03 | 0.66 | 0.05 | 95 | 1010.4 |
| 20260506025506 | 13 | 69 | 11.3 | 16.1 | 0.03 | 0.66 | 0.05 | 95 | 1010.2 |
| 20260506025005 | 13 | 58 | 11.3 | 16.1 | 0.03 | 0.66 | 0.05 | 95 | 1010.4 |
| 20260506024506 | 13 | 44 | 9.7 | 16.1 | 0.03 | 0.66 | 0.05 | 95 | 1010.6 |
| 20260506024005 | 13 | 52 | 9.7 | 16.1 | 0.03 | 0.66 | 0.05 | 95 | 1010.5 |
| 20260506023505 | 13 | 77 | 9.7 | 14.5 | 0.00 | 0.64 | 0.03 | 95 | 1010.8 |
| 20260506023006 | 13 | 97 | 8.0 | 14.5 | 0.00 | 0.64 | 0.03 | 95 | 1011.1 |
| 20260506022505 | 13 | 114 | 6.4 | 14.5 | 0.00 | 0.64 | 0.03 | 95 | 1011.4 |
| 20260506021505 | 13 | 103 | 6.4 | 12.9 | 0.00 | 0.64 | 0.03 | 95 | 1011.4 |
| 20260506021005 | 13 | 98 | 8.0 | 14.5 | 0.00 | 0.64 | 0.03 | 95 | 1011.3 |
| 20260506020005 | 13 | 96 | 6.4 | 12.9 | 0.00 | 0.64 | 0.03 | 94 | 1011.3 |
| 20260506015005 | 13 | 101 | 6.4 | 11.3 | 0.00 | 0.64 | 0.03 | 94 | 1011.3 |
| 20260506014505 | 13 | 105 | 4.8 | 8.0 | 0.00 | 0.64 | 0.03 | 94 | 1011.4 |
| 20260506014005 | 13 | 107 | 3.2 | 6.4 | 0.00 | 0.64 | 0.03 | 94 | 1011.5 |
| 20260506013005 | 12 | 128 | 3.2 | 4.8 | 0.00 | 0.64 | 0.03 | 94 | 1011.6 |
| 20260506012006 | 12 | 127 | 1.6 | 8.0 | 0.00 | 0.64 | 0.03 | 94 | 1011.6 |
| 20260506011506 | 12 | 161 | 1.6 | 4.8 | 0.00 | 0.64 | 0.03 | 94 | 1011.6 |
| 20260506011005 | 12 | 163 | 1.6 | 6.4 | 0.00 | 0.64 | 0.03 | 94 | 1011.7 |
| 20260506010505 | 12 | 181 | 1.6 | 6.4 | 0.00 | 0.64 | 0.03 | 94 | 1011.7 |
| 20260506010005 | 12 | 189 | 3.2 | 6.4 | 0.00 | 0.64 | 0.03 | 94 | 1011.8 |
| 20260506005505 | 12 | 188 | 4.8 | 9.7 | 0.00 | 0.64 | 0.03 | 94 | 1011.9 |
| 20260506005005 | 12 | 192 | 3.2 | 9.7 | 0.00 | 0.64 | 0.03 | 94 | 1011.9 |
| 20260506004506 | 12 | 224 | 0.0 | 4.8 | 0.00 | 0.64 | 0.03 | 94 | 1011.9 |
| 20260506003505 | 12 | 284 | 1.6 | 4.8 | 0.00 | 0.64 | 0.03 | 94 | 1011.5 |
| 20260506003005 | 12 | 267 | 0.0 | 4.8 | 0.00 | 0.64 | 0.03 | 94 | 1011.6 |
| 20260506002505 | 12 | 211 | 0.0 | 3.2 | 0.00 | 0.64 | 0.03 | 94 | 1011.7 |
| 20260506001505 | 12 | 181 | 3.2 | 11.3 | 0.00 | 0.64 | 0.03 | 94 | 1011.9 |
| 20260506001006 | 12 | 162 | 4.8 | 12.9 | 0.00 | 0.64 | 0.03 | 94 | 1012.1 |
| 20260506000006 | 12 | 72 | 6.4 | 8.0 | 0.00 | 0.64 | 0.03 | 94 | 1012.1 |
| 20260505235505 | 12 | 58 | 6.4 | 9.7 | 0.00 | 0.64 | 0.03 | 94 | 1012.0 |
| 20260505235005 | 12 | 54 | 6.4 | 9.7 | 0.00 | 0.64 | 0.03 | 94 | 1011.9 |
| 20260505234005 | 12 | 65 | 6.4 | 8.0 | 0.00 | 0.64 | 0.03 | 94 | 1012.1 |
| 20260505233005 | 12 | 57 | 4.8 | 8.0 | 0.00 | 0.64 | 0.03 | 94 | 1012.1 |
| 20260505232005 | 12 | 64 | 4.8 | 6.4 | 0.03 | 0.64 | 0.03 | 94 | 1012.3 |
| 20260505231505 | 12 | 56 | 4.8 | 6.4 | 0.03 | 0.64 | 0.03 | 94 | 1012.3 |
| 20260505231005 | 12 | 67 | 6.4 | 9.7 | 0.03 | 0.64 | 0.03 | 94 | 1012.4 |
| 20260505230006 | 13 | 73 | 8.0 | 12.9 | 0.03 | 0.64 | 0.03 | 94 | 1012.3 |
| 20260505225006 | 12 | 72 | 6.4 | 9.7 | 0.03 | 0.64 | 0.03 | 94 | 1012.3 |
| 20260505224505 | 12 | 73 | 6.4 | 9.7 | 0.03 | 0.64 | 0.03 | 94 | 1012.3 |
| 20260505224005 | 12 | 69 | 6.4 | 12.9 | 0.03 | 0.64 | 0.03 | 94 | 1012.5 |
| 20260505223505 | 12 | 71 | 6.4 | 12.9 | 0.03 | 0.64 | 0.03 | 94 | 1012.4 |
| 20260505223005 | 12 | 76 | 6.4 | 12.9 | 0.03 | 0.64 | 0.03 | 94 | 1012.4 |
| 20260505222506 | 13 | 70 | 6.4 | 9.7 | 0.03 | 0.64 | 0.03 | 94 | 1012.5 |
| 20260505222006 | 12 | 64 | 8.0 | 12.9 | 0.00 | 0.61 | 0.00 | 94 | 1012.4 |
| 20260505221505 | 12 | 64 | 8.0 | 12.9 | 0.00 | 0.61 | 0.00 | 94 | 1012.4 |
| 20260505221006 | 12 | 61 | 6.4 | 9.7 | 0.00 | 0.61 | 0.00 | 93 | 1012.4 |
| 20260505220505 | 12 | 56 | 6.4 | 12.9 | 0.00 | 0.61 | 0.00 | 94 | 1012.5 |
| 20260505220008 | 12 | 57 | 8.0 | 12.9 | 0.00 | 0.61 | 0.00 | 93 | 1012.5 |
| 20260505215505 | 13 | 62 | 8.0 | 9.7 | 0.00 | 0.61 | 0.61 | 93 | 1012.5 |
| 20260505215006 | 13 | 63 | 8.0 | 12.9 | 0.00 | 0.61 | 0.61 | 93 | 1012.6 |
| 20260505214005 | 13 | 62 | 6.4 | 9.7 | 0.00 | 0.61 | 0.61 | 93 | 1012.9 |
| 20260505213505 | 13 | 62 | 6.4 | 8.0 | 0.00 | 0.61 | 0.61 | 93 | 1012.9 |
| 20260505212505 | 13 | 65 | 6.4 | 9.7 | 0.00 | 0.61 | 0.61 | 93 | 1013.0 |
| 20260505211005 | 13 | 65 | 6.4 | 11.3 | 0.00 | 0.61 | 0.61 | 93 | 1013.1 |
| 20260505210505 | 13 | 64 | 8.0 | 14.5 | 0.00 | 0.61 | 0.61 | 93 | 1013.1 |
| 20260505205006 | 13 | 71 | 6.4 | 9.7 | 0.00 | 0.61 | 0.61 | 93 | 1013.1 |
| 20260505204505 | 13 | 67 | 8.0 | 12.9 | 0.00 | 0.61 | 0.61 | 93 | 1013.1 |
| 20260505204006 | 13 | 57 | 8.0 | 14.5 | 0.00 | 0.61 | 0.61 | 93 | 1013.0 |
| 20260505203506 | 13 | 56 | 8.0 | 14.5 | 0.00 | 0.61 | 0.61 | 93 | 1013.0 |
| 20260505202505 | 13 | 58 | 8.0 | 14.5 | 0.00 | 0.61 | 0.61 | 93 | 1013.1 |
| 20260505202006 | 13 | 60 | 8.0 | 12.9 | 0.00 | 0.61 | 0.61 | 92 | 1013.0 |
| 20260505201506 | 14 | 60 | 9.7 | 14.5 | 0.00 | 0.61 | 0.61 | 92 | 1013.1 |
| 20260505200505 | 14 | 54 | 8.0 | 14.5 | 0.00 | 0.61 | 0.61 | 92 | 1013.1 |
| 20260505200005 | 14 | 55 | 8.0 | 14.5 | 0.00 | 0.61 | 0.61 | 92 | 1013.1 |
| 20260505195506 | 14 | 60 | 8.0 | 14.5 | 0.00 | 0.61 | 0.61 | 92 | 1013.1 |
| 20260505195006 | 14 | 65 | 9.7 | 14.5 | 0.00 | 0.61 | 0.61 | 92 | 1013.1 |
| 20260505194505 | 14 | 62 | 9.7 | 17.7 | 0.00 | 0.61 | 0.61 | 92 | 1013.0 |
| 20260505193505 | 14 | 53 | 8.0 | 17.7 | 0.00 | 0.61 | 0.61 | 92 | 1012.9 |
| 20260505193006 | 14 | 50 | 9.7 | 17.7 | 0.00 | 0.61 | 0.61 | 92 | 1012.9 |
| 20260505192005 | 14 | 58 | 11.3 | 16.1 | 0.00 | 0.61 | 0.61 | 91 | 1012.8 |
| 20260505191505 | 14 | 56 | 9.7 | 16.1 | 0.00 | 0.61 | 0.61 | 91 | 1012.8 |
| 20260505191006 | 14 | 49 | 8.0 | 14.5 | 0.00 | 0.61 | 0.61 | 91 | 1012.8 |
| 20260505190506 | 14 | 45 | 9.7 | 17.7 | 0.00 | 0.61 | 0.61 | 91 | 1012.7 |
| 20260505190005 | 15 | 47 | 11.3 | 17.7 | 0.00 | 0.61 | 0.61 | 91 | 1012.6 |
| 20260505185505 | 15 | 51 | 11.3 | 17.7 | 0.00 | 0.61 | 0.61 | 91 | 1012.7 |
| 20260505185006 | 15 | 50 | 11.3 | 19.3 | 0.00 | 0.61 | 0.61 | 90 | 1012.6 |
| 20260505184505 | 15 | 48 | 11.3 | 19.3 | 0.00 | 0.61 | 0.61 | 90 | 1012.5 |
| 20260505184005 | 15 | 49 | 9.7 | 16.1 | 0.00 | 0.61 | 0.61 | 90 | 1012.7 |
| 20260505183505 | 15 | 48 | 9.7 | 14.5 | 0.00 | 0.61 | 0.61 | 89 | 1012.7 |
| 20260505182506 | 15 | 54 | 9.7 | 16.1 | 0.00 | 0.61 | 0.61 | 89 | 1012.8 |
| 20260505182005 | 15 | 54 | 11.3 | 16.1 | 0.00 | 0.61 | 0.61 | 89 | 1012.7 |
| 20260505181505 | 15 | 54 | 12.9 | 19.3 | 0.00 | 0.61 | 0.61 | 89 | 1012.6 |
| 20260505181006 | 15 | 54 | 12.9 | 19.3 | 0.00 | 0.61 | 0.61 | 88 | 1012.6 |
| 20260505180506 | 15 | 52 | 11.3 | 19.3 | 0.00 | 0.61 | 0.61 | 88 | 1012.5 |
| 20260505180005 | 15 | 50 | 9.7 | 17.7 | 0.00 | 0.61 | 0.61 | 88 | 1012.5 |
| 20260505175505 | 15 | 53 | 12.9 | 17.7 | 0.00 | 0.61 | 0.61 | 88 | 1012.2 |
| 20260505175006 | 15 | 56 | 12.9 | 17.7 | 0.00 | 0.61 | 0.61 | 88 | 1012.2 |